Theta_e
309 311 310 306 309 311 314 317 317 316 316 322 324 324 325 324 323 323 323 323 322 320 318 322 325 324 321 320 317 318 327 329 329 329 330 322 327 323 324 328 329 330 325 327 335
308 309 310 306 307 309 312 316 317 316 316 318 322 322 322 322 322 322 323 322 322 319 317 323 325 325 322 320 319 322 327 327 323 324 327 323 326 325 329 330 332 332 330 331 335
307 308 308 309 306 310 312 315 317 315 315 317 319 321 321 320 316 319 323 323 321 318 318 322 324 324 322 319 320 320 326 323 321 320 322 323 324 323 328 330 329 332 331 331 332
307 307 307 309 308 309 312 314 317 315 315 315 318 320 320 319 324 323 320 320 319 318 318 322 324 325 323 322 321 322 321 321 321 319 321 324 321 326 325 326 321 326 329 331 332
306 306 306 306 308 307 311 314 317 316 316 314 317 319 320 319 318 323 324 322 321 320 321 321 325 325 325 322 322 323 322 320 319 319 319 319 321 323 324 319 322 327 330 331 331
304 305 303 304 306 306 308 313 315 316 315 315 315 319 318 318 314 316 322 322 321 320 322 322 323 322 324 324 321 320 321 321 320 320 321 322 321 321 321 321 325 329 330 330 330
306 305 304 303 305 306 306 309 314 315 317 315 314 318 316 315 315 316 321 320 324 322 321 323 323 323 323 324 321 320 323 321 321 321 322 320 323 322 320 321 325 327 328 328 329
304 304 303 303 304 305 305 306 313 315 315 316 314 317 313 314 314 320 320 322 324 325 323 322 324 323 324 322 320 322 320 322 320 321 320 320 325 320 317 318 323 324 325 326 326
304 304 302 302 303 304 304 306 312 314 315 316 316 312 309 310 310 313 319 319 324 325 325 323 322 322 324 322 322 319 322 323 322 319 321 321 322 319 316 317 319 318 319 318 318
304 303 303 302 302 304 305 307 312 314 315 315 314 311 310 311 311 316 318 320 322 324 325 323 322 322 320 319 323 324 322 322 322 318 320 322 322 319 316 316 317 315 314 313 313
305 303 303 302 301 303 305 309 312 311 314 315 314 314 311 311 311 313 317 320 322 323 322 325 323 323 323 322 318 319 320 319 318 317 318 319 320 320 317 316 317 316 315 314 314
306 304 303 303 301 303 305 310 309 310 316 313 313 313 311 312 313 313 317 318 321 321 322 326 323 318 320 322 323 320 320 321 318 317 318 317 317 315 314 314 314 314 314 314 313
306 304 304 303 303 303 305 308 309 311 312 313 313 314 313 311 312 314 314 317 318 321 321 319 318 317 320 322 324 322 321 319 320 318 316 313 315 314 314 313 312 312 313 313 314
306 304 304 303 301 303 304 306 308 309 311 313 315 314 312 312 313 314 314 315 318 319 319 319 316 319 319 321 321 323 318 319 320 322 322 312 316 314 310 309 310 310 311 312 312
305 304 303 301 300 302 302 305 306 308 304 307 314 311 311 313 313 316 315 313 317 317 316 317 318 319 321 320 320 320 317 319 319 320 321 318 318 314 309 310 308 307 307 307 306
305 304 303 300 301 301 303 304 306 310 305 313 313 315 315 313 314 316 316 311 312 316 314 312 311 316 317 317 319 315 316 315 314 315 315 315 314 308 307 308 308 308 307 307 306
304 304 303 300 300 303 305 304 308 305 304 313 313 315 314 315 316 316 317 316 316 318 319 316 315 312 313 317 316 316 316 319 320 316 313 308 314 310 307 307 308 308 307 306 304
304 304 302 299 303 304 303 301 307 297 301 308 312 313 314 314 315 316 317 318 314 310 313 316 311 314 312 316 318 317 315 318 315 316 312 311 314 312 309 308 306 304 304 304 305
304 302 300 302 303 303 296 302 300 300 306 311 312 313 314 313 315 315 315 316 316 311 314 313 313 312 311 312 315 318 320 312 313 303 310 310 308 306 306 306 306 305 304 304 305
301 300 301 302 301 299 291 297 297 304 308 310 311 310 313 314 311 314 315 312 314 312 309 311 311 311 312 313 313 315 314 318 312 314 313 310 310 311 308 307 305 305 305 305 303
299 298 301 302 301 292 289 290 299 300 306 310 310 311 311 313 310 314 314 310 310 312 311 311 312 312 313 315 315 315 317 316 315 311 313 311 310 304 307 306 307 305 306 305 303
298 301 301 299 294 287 285 288 298 303 303 305 306 307 310 310 312 311 313 311 308 311 314 312 315 314 312 311 310 313 314 316 313 313 308 311 314 305 304 304 303 303 306 305 304
296 300 300 297 294 292 285 294 296 300 302 304 304 304 302 305 306 308 310 306 307 310 313 313 316 315 313 310 311 313 312 313 312 308 314 314 314 305 304 305 305 306 304 304 304
298 301 297 291 283 290 286 291 292 295 300 302 304 302 302 302 301 303 307 306 305 307 307 309 314 312 309 308 310 314 313 314 314 311 314 315 313 310 309 308 306 305 304 303 302
291 296 288 296 288 289 292 292 292 294 298 299 301 302 302 301 300 300 303 304 304 305 308 307 312 313 313 311 310 311 312 313 315 315 315 313 311 312 311 309 308 306 305 304 305
293 295 284 285 290 293 293 293 297 294 297 297 298 299 301 298 298 299 301 303 303 306 309 306 311 309 310 312 312 312 311 310 310 312 313 313 313 312 311 309 306 306 305 305 304
294 292 291 295 288 295 293 293 295 295 296 296 297 297 300 299 298 297 297 297 299 301 303 304 302 297 299 306 308 304 309 312 312 310 312 314 313 311 310 309 307 306 305 304 303
Wind_Speed
13 12 12 11 12 14 12 13 11 8 12 3 4 3 8 4 7 7 12 5 7 15 19 19 14 27 8 3 5 1 4 3 6 7 5 5 4 1 2 5 0 2 3 0 23
14 14 12 12 13 15 13 12 12 10 9 13 6 4 5 4 5 7 17 7 12 16 13 13 9 15 6 4 3 4 3 7 6 3 5 7 4 8 4 3 1 2 2 12 23
14 14 13 12 13 14 13 11 13 11 11 10 8 6 7 3 2 6 11 15 14 10 5 5 12 7 6 4 5 1 2 2 1 2 4 7 4 3 8 2 6 7 6 10 15
13 13 11 10 10 12 11 9 12 13 12 13 12 9 6 6 3 1 5 10 9 6 2 5 6 5 5 5 3 3 2 1 1 1 4 7 7 5 5 4 1 6 7 12 12
13 13 11 9 10 8 9 8 9 14 13 12 11 11 8 2 4 0 3 5 6 5 6 4 4 2 4 4 3 2 1 3 3 6 5 6 3 3 5 1 3 7 9 11 11
13 14 12 12 10 9 7 5 8 11 14 14 14 12 5 5 2 4 4 6 3 5 9 5 5 7 5 3 3 3 3 2 3 2 3 4 1 2 1 3 4 6 8 8 9
12 13 12 11 10 8 8 4 7 9 12 14 14 12 3 7 3 4 6 3 3 2 7 5 6 3 3 2 4 2 0 3 1 0 2 3 1 6 2 3 4 5 5 6 10
13 12 9 9 11 10 9 6 5 9 10 14 14 9 4 7 10 2 7 6 5 4 8 14 9 5 3 0 5 4 4 1 3 3 2 3 6 7 5 5 6 5 6 7 8
15 13 9 9 8 11 10 8 5 10 7 15 14 7 4 3 6 10 6 7 5 4 6 12 5 4 3 4 3 5 2 2 5 4 2 3 6 2 3 5 7 6 7 6 7
16 15 11 10 7 9 8 6 5 5 7 16 9 2 3 4 6 13 7 9 4 4 4 5 4 4 3 3 5 4 3 4 4 3 3 1 8 6 1 4 7 6 7 6 7
18 16 13 11 7 9 8 4 4 1 4 2 7 1 4 6 9 7 9 7 4 4 4 1 3 8 8 8 3 4 3 3 2 3 1 5 6 13 2 3 7 8 8 8 11
19 18 15 12 7 7 5 3 2 1 5 1 7 3 3 4 4 2 8 4 4 5 6 4 9 4 3 8 4 3 4 3 5 2 1 5 8 10 4 6 7 9 10 12 8
20 19 18 13 8 6 4 2 8 4 4 4 3 1 2 5 3 6 4 3 4 6 7 6 2 7 6 5 7 4 6 4 4 4 1 5 7 6 7 3 5 8 12 11 16
21 20 19 15 8 6 2 7 4 1 3 4 7 4 3 5 4 2 7 3 2 4 6 1 2 5 5 4 6 5 6 6 3 2 4 2 7 5 5 5 5 11 12 11 8
22 21 23 17 9 6 6 10 1 3 3 3 6 5 3 5 9 0 1 4 7 5 5 5 6 4 3 4 5 5 7 7 3 2 2 1 3 5 2 4 11 10 8 8 6
22 22 26 13 8 7 10 10 6 2 5 6 4 6 7 3 2 4 4 5 2 4 4 2 1 3 5 3 6 6 6 5 4 3 2 7 7 4 4 6 5 2 4 7 8
19 26 23 11 6 18 17 7 2 2 4 4 3 7 9 6 5 4 9 5 5 5 4 2 1 1 2 6 2 4 6 2 1 0 5 2 3 3 6 8 5 6 7 9 8
21 30 20 5 18 22 7 5 1 1 3 2 1 8 6 5 3 3 6 7 3 4 4 6 3 7 5 5 6 6 5 4 6 4 3 2 6 5 8 8 5 7 6 6 7
32 21 16 17 19 11 5 3 4 3 2 1 4 8 3 3 4 4 6 3 9 6 4 4 3 1 4 3 7 5 5 3 5 4 3 4 6 9 6 9 5 4 4 6 5
16 10 5 16 10 5 4 5 2 3 4 2 2 1 4 9 4 5 9 3 6 6 5 4 2 2 2 1 0 5 6 2 1 3 4 4 5 6 4 5 4 3 4 5 5
15 3 2 10 5 5 3 2 2 4 4 5 3 3 4 4 3 7 4 2 2 5 8 5 2 1 4 6 7 3 2 3 4 4 4 1 5 7 8 6 5 3 3 2 4
5 3 3 5 4 2 2 3 2 2 3 4 2 4 4 3 3 2 3 4 5 1 6 3 3 4 6 1 2 3 7 6 4 3 3 2 11 5 7 7 6 5 5 2 3
3 2 10 4 3 0 4 1 1 1 2 2 3 3 4 3 4 2 2 4 10 3 2 4 3 3 1 4 3 5 5 6 4 2 12 4 6 5 3 3 4 5 7 3 7
3 3 3 3 1 6 3 2 3 3 2 3 3 3 4 4 5 4 3 2 4 3 8 6 2 3 5 3 2 5 7 14 10 6 6 16 21 13 4 6 5 7 7 8 9
3 2 2 3 2 3 3 2 2 1 1 2 2 3 5 3 2 0 2 4 2 5 5 4 1 2 6 7 2 4 7 14 16 19 7 14 13 19 13 10 11 8 8 8 10
3 4 3 1 2 4 1 4 6 1 2 1 2 3 2 4 3 6 2 1 2 2 2 1 3 3 1 2 4 6 15 6 7 10 12 16 21 23 16 7 6 8 8 9 9
2 3 4 2 2 3 4 5 7 5 4 0 3 3 2 2 2 2 2 1 2 4 2 3 4 2 4 4 1 7 11 14 14 7 10 13 22 18 14 10 5 8 8 8 8
Wind_Direction
267 276 296 295 305 304 288 264 254 247 226 206 239 192 185 203 184 244 278 273 286 319 335 341 358 357 328 55 49 163 73 158 182 162 170 161 132 133 104 113 334 306 156 319 156
273 267 282 286 285 301 286 272 241 237 226 219 193 130 111 170 133 228 236 280 282 311 332 28 11 354 340 23 18 71 105 190 173 185 171 167 156 155 126 120 249 301 53 138 156
272 273 271 279 281 292 284 270 236 231 221 207 194 172 135 166 124 227 225 259 285 300 358 26 24 14 320 13 351 70 126 172 46 160 153 145 126 143 125 210 218 197 168 157 163
262 268 270 266 276 283 290 268 230 222 220 203 191 166 141 191 178 46 206 240 268 270 42 59 68 9 325 331 339 88 55 99 61 69 127 156 133 148 184 180 278 208 159 168 174
248 256 267 273 269 286 287 259 225 216 214 211 190 165 161 129 252 4 112 168 196 163 120 113 104 88 267 306 357 59 24 46 68 79 98 115 90 158 224 278 44 131 152 185 190
238 256 260 255 260 274 290 288 238 210 208 206 189 178 148 171 184 207 158 117 125 170 122 126 145 156 267 338 359 350 25 38 13 83 93 118 135 115 38 121 104 158 187 194 212
239 261 247 252 259 265 283 294 239 216 204 199 188 177 75 211 134 187 190 120 85 185 118 129 122 131 146 43 345 28 92 354 349 156 111 132 315 218 168 133 160 199 209 213 228
225 248 241 242 245 260 275 302 265 211 202 189 181 165 222 222 230 156 143 115 109 87 127 145 119 102 50 251 14 56 48 120 284 147 23 118 246 252 191 152 204 215 230 235 236
224 230 244 232 237 248 252 287 261 202 193 176 163 165 235 174 202 217 167 139 115 95 89 125 112 111 50 102 51 18 221 271 309 227 92 137 239 308 194 184 235 230 235 249 284
224 221 228 223 225 240 235 264 239 179 188 152 138 139 180 202 157 151 142 146 118 108 60 61 46 103 69 95 188 179 188 238 237 5 45 71 259 251 59 186 238 263 267 264 259
216 214 215 215 210 225 225 200 162 251 178 261 152 149 132 121 128 140 146 119 98 82 140 117 139 201 173 191 158 137 134 211 299 341 359 226 251 269 206 238 266 263 266 262 256
209 206 205 207 186 199 226 264 36 17 140 168 128 328 159 147 93 72 152 121 138 143 130 123 231 237 139 123 154 128 143 220 288 10 137 299 265 269 234 228 215 235 253 251 254
202 198 198 189 159 194 158 189 42 74 24 143 147 250 151 127 108 175 130 108 120 142 172 161 154 169 137 140 148 166 172 180 224 325 91 328 269 233 264 215 236 247 242 251 244
197 192 183 169 148 173 204 205 3 68 104 173 191 215 164 137 71 120 162 112 64 138 118 251 190 137 124 175 145 178 180 164 177 73 240 27 287 298 291 286 278 264 245 252 259
192 180 173 173 141 161 192 169 357 327 87 184 155 173 164 127 136 140 85 49 148 150 133 196 171 147 142 203 161 201 150 163 134 169 339 294 285 272 315 278 250 265 291 302 298
185 170 165 163 115 148 149 171 86 138 252 166 123 163 139 111 75 122 128 60 108 94 67 118 89 151 192 151 162 140 93 62 66 115 278 203 191 223 190 220 294 267 356 329 324
171 168 163 161 144 140 132 93 153 173 254 160 162 162 157 138 125 142 160 156 152 139 165 86 246 118 148 93 60 176 142 103 67 195 228 305 221 275 270 253 235 298 317 316 312
157 156 154 133 142 148 140 66 189 249 228 285 179 149 167 128 116 117 135 162 209 87 111 166 289 174 185 176 170 191 180 180 194 201 271 47 240 251 221 271 282 286 284 284 324
143 134 136 144 147 157 74 98 200 213 255 277 86 151 178 112 122 121 173 175 184 178 132 134 268 196 190 183 151 187 209 156 90 23 58 221 278 285 269 283 318 333 341 325 329
111 81 74 149 149 82 81 129 245 315 357 11 103 8 138 176 98 137 166 180 157 166 119 186 90 191 200 210 93 174 161 125 28 167 232 251 263 231 238 226 332 7 306 341 341
87 73 104 140 112 49 112 179 311 326 28 35 53 108 70 113 124 173 175 68 14 194 150 140 119 245 132 201 178 144 185 197 143 158 191 280 247 211 214 211 202 242 249 254 318
82 84 18 106 58 74 90 175 279 9 344 31 62 61 57 89 106 120 156 69 9 219 177 182 145 186 199 197 334 250 194 181 147 253 230 177 258 183 197 188 201 222 275 353 268
76 62 51 25 122 338 323 342 195 44 28 37 68 24 37 93 101 67 41 0 11 41 68 156 200 180 144 358 325 216 201 202 125 99 223 137 262 358 146 265 259 242 262 272 277
111 108 35 47 9 125 130 317 30 358 70 48 83 51 59 36 25 147 149 182 353 43 62 18 194 205 203 174 99 193 204 204 193 203 217 227 260 263 271 266 276 256 266 258 257
49 81 178 161 311 102 83 159 129 79 32 38 111 197 159 120 39 264 182 147 181 279 139 135 191 219 251 283 319 335 248 213 211 231 203 251 250 261 252 233 252 244 251 266 271
120 140 17 83 139 104 352 222 186 251 138 270 172 223 176 139 175 200 144 137 116 158 160 271 190 147 338 235 239 250 263 285 264 251 244 258 260 267 272 271 232 255 260 255 263
101 97 99 91 40 114 219 201 200 156 219 222 198 98 68 226 167 218 212 236 169 146 143 158 133 83 238 209 273 291 228 222 237 208 212 231 245 271 284 265 237 236 243 262 272